Location: S�tio Afonso Gruber
(26.1760°S, 49.5250°W)
Time: 22:51:46
(UTC+00:00)

Envisat - Pass Details

Date: 07 June 2020
Orbit: 764 x 766 km, 98.1° (Epoch: 10 July)

Event Time Altitude Azimuth Distance (km) Brightness Sun altitude
Rises 08:34:55 0° 26° (NNE) 3,214 6.9 -18.8°
Reaches altitude 10° 08:37:15 10° 31° (NNE) 2,296 6.1 -18.3°
Maximum altitude 08:42:08 50° 105° (ESE) 978 3.9 -17.3°
Drops below altitude 10° 08:47:04 10° 179° (S) 2,322 5.3 -16.2°
Sets 08:49:27 0° 184° (S) 3,255 6.0 -15.7°
